User: anonymous   Login
Location: Lower Kingswood
(51.2667°N, 0.2167°W)
Time: 05:07:10
(UTC+00:00)
Language:

Meteor 2-17 Rocket - Orbit

View from above orbital plane
View from above orbital plane
View from above satellite
View from above satellite

Ground track
Ground track

The orbit data is extracted from the following two-line orbital elements,

1 18821U 88005B   24060.86711977  .00000026  00000-0  99162-5 0  9999
2 18821  82.5392 272.9545 0013185 292.8785  67.0983 13.85165262824257
Epoch (UTC): 29 February 2024 20:48:39
Eccentricity: 0.0013185
inclination: 82.5392°
perigee height: 936 km
apogee height: 955 km
right ascension of ascending node: 272.9545°
argument of perigee: 292.8785°
revolutions per day: 13.85165262
mean anomaly at epoch: 67.0983°
orbit number at epoch: 82425

The dashed part of the orbit path shows where the satellite is in the earth's shadow,  

DLR